User: anonymous   Login
Location: Unspecified
(0.0000°N, 0.0000°E)
Time: 23:48:47
(UTC+00:00)
Language:

Kosmos-2004 - Orbit

View from above orbital plane
View from above orbital plane
View from above satellite
View from above satellite

Ground track
Ground track

The orbit data is extracted from the following two-line orbital elements,

1 19826U 89017A   17349.56899672  .00000033  00000-0  20360-4 0  9998
2 19826  82.9536  50.5269 0029146 235.0290 235.6815 13.72246708442742
Epoch (UTC): 15 December 2017 13:39:21
Eccentricity: 0.0029146
inclination: 82.9536°
perigee height: 970 km
apogee height: 1013 km
right ascension of ascending node: 50.5269°
argument of perigee: 235.0290°
revolutions per day: 13.72246708
mean anomaly at epoch: 235.6815°
orbit number at epoch: 44274

The dashed part of the orbit path shows where the satellite is in the earth's shadow,  

DLR